User: anonymous   Login
Location: Dannhausen
(51.8650°N, 10.1026°E)
Time: 00:34:25
(UTC+00:00)
Language:

Cosmos 540 Rocket - Orbit

View from above orbital plane
View from above orbital plane
View from above satellite
View from above satellite

Ground track
Ground track

The orbit data is extracted from the following two-line orbital elements,

1  6324U 72104B   20188.75219904  .00000095  00000-0  35995-4 0  9994
2  6324  74.0753 198.3923 0008151  44.4992 315.6818 14.43492599496534
Epoch (UTC): 06 July 2020 18:03:09
Eccentricity: 0.0008151
inclination: 74.0753°
perigee height: 741 km
apogee height: 753 km
right ascension of ascending node: 198.3923°
argument of perigee: 44.4992°
revolutions per day: 14.43492599
mean anomaly at epoch: 315.6818°
orbit number at epoch: 49653

The dashed part of the orbit path shows where the satellite is in the earth's shadow,  

DLR